RH
80 48 38 28 37 40 44 37 25 29 28 35 44 34 37 32 60 54 53 36 29 28 24 24 29 25 23 22 21 19 23 28
36 26 25 28 39 37 28 27 28 30 29 32 33 47 32 47 81 64 55 34 29 28 43 45 36 29 26 25 23 22 20 36
22 25 29 32 37 35 21 22 23 26 26 26 28 41 60 76 92 71 46 32 39 51 56 39 40 38 32 37 37 34 39 38
24 32 36 32 34 32 31 27 30 24 25 31 34 70 78 66 85 33 48 49 67 66 57 48 40 46 36 45 52 97 90 100
28 28 26 32 31 29 27 24 21 30 26 29 37 75 24 22 32 47 55 82 61 56 54 50 48 29 42 44 71 63 85 65
42 38 42 43 43 36 26 19 14 16 23 56 76 23 23 36 57 78 89 88 100 100 83 81 97 100 99 98 90 96 91 88
62 63 59 44 33 31 42 21 16 15 24 91 44 33 57 68 86 84 72 79 60 49 54 66 56 71 90 86 99 100 100 87
64 68 70 32 31 47 25 20 28 44 47 70 84 78 99 96 72 54 75 72 70 52 54 63 70 52 61 87 66 85 100 100
55 42 35 34 45 26 23 43 84 66 55 98 92 67 95 63 61 54 41 36 86 49 80 59 57 72 47 38 48 31 53 75
48 26 29 40 38 32 33 89 41 41 32 39 42 56 68 70 80 67 52 60 40 31 42 30 32 44 62 51 77 100 62 43
44 28 26 31 31 61 60 90 59 34 36 42 54 73 71 76 82 92 86 76 64 74 82 31 22 62 77 79 99 86 96 67
58 31 24 36 38 82 84 100 77 44 44 62 75 76 58 87 85 98 100 100 100 62 98 48 57 58 38 42 92 63 87 84
27 22 26 34 61 89 100 84 51 39 57 60 63 61 81 61 79 100 100 100 100 92 100 100 100 51 40 59 72 60 87 91
25 30 33 55 86 97 94 60 41 52 66 59 57 71 82 92 100 97 93 100 100 70 99 100 94 48 66 59 39 59 57 77
38 40 45 68 87 94 69 51 45 46 41 32 34 37 35 46 58 90 95 100 67 59 100 100 100 100 77 30 38 62 59 72
62 53 92 99 99 76 85 50 41 43 45 36 45 40 34 43 72 78 100 100 100 91 50 60 100 100 73 60 47 57 62 98
62 54 88 100 99 71 60 76 41 45 36 41 52 32 39 48 95 78 90 99 98 71 60 100 99 94 71 67 67 63 84 82
52 39 61 77 73 86 90 69 43 49 51 78 73 32 32 55 59 81 80 87 80 64 66 98 72 74 74 46 55 69 100 97
94 91 79 84 79 81 54 44 61 89 89 74 43 38 47 81 75 78 94 100 76 72 53 100 84 80 65 88 96 52 62 100
100 100 95 76 59 61 80 86 88 63 53 49 64 94 73 65 64 69 83 54 96 100 100 88 100 70 99 86 49 70 84 100
Wind_Speed
13 5 4 6 10 13 16 16 16 17 17 18 21 20 20 22 27 28 27 27 31 33 34 35 34 38 45 47 49 49 44 44
12 7 7 10 12 16 20 20 21 23 25 25 24 24 23 26 30 29 25 32 28 32 36 36 34 37 37 38 39 42 38 44
12 15 13 16 15 19 21 23 24 24 26 24 24 24 26 27 28 28 32 28 32 35 32 32 37 39 36 39 42 47 53 54
15 16 16 19 18 20 20 28 32 26 23 20 18 22 21 24 27 35 28 30 33 27 31 34 41 41 40 42 42 48 53 55
13 16 19 21 20 23 25 28 25 19 16 17 20 20 26 30 32 32 29 24 32 37 39 43 40 46 48 45 47 48 51 53
16 17 19 22 23 25 25 22 21 17 14 19 16 23 27 30 25 21 17 16 34 39 43 45 47 49 51 48 48 50 52 58
18 18 20 23 25 27 24 24 22 22 21 19 19 21 27 22 18 22 23 26 34 40 43 46 52 56 54 57 56 59 61 55
22 23 30 25 24 23 26 23 24 27 27 28 28 27 24 17 19 29 31 34 37 40 45 48 48 50 52 53 61 65 66 69
21 24 29 24 19 22 24 25 22 18 23 25 27 26 11 17 20 26 29 34 35 37 45 54 49 49 57 57 64 60 55 59
27 24 26 25 29 28 26 20 20 26 25 25 24 22 14 19 20 25 29 31 33 43 50 53 53 54 56 64 65 69 61 60
26 23 26 28 31 30 27 21 24 23 26 26 26 18 16 17 19 26 32 34 41 47 54 56 58 61 68 71 75 73 74 74
29 26 29 28 30 28 26 26 29 29 22 14 14 16 20 24 28 32 37 40 51 59 62 64 64 63 67 70 74 77 76 84
28 31 33 32 29 26 25 30 33 30 25 21 20 25 28 27 38 42 51 56 59 61 63 64 68 64 74 80 81 88 87 86
30 30 31 27 27 29 27 33 34 27 27 28 23 23 34 43 46 50 55 60 62 56 63 64 68 70 81 82 79 86 93 89
27 30 27 29 29 26 33 31 27 27 25 28 36 43 49 53 50 55 51 56 54 57 66 70 72 79 83 87 90 87 90 90
25 28 31 34 34 33 28 26 27 30 33 36 50 54 54 48 53 50 54 58 60 64 68 74 79 85 86 92 100 92 101 97
26 26 27 33 40 39 34 33 34 37 35 42 47 52 49 47 53 56 62 66 65 70 69 75 81 84 91 100 99 101 102 105
37 36 32 35 38 38 37 34 35 38 49 52 52 45 49 51 55 62 63 67 70 76 74 82 86 89 92 94 97 109 110 109
39 35 33 33 35 36 38 39 43 48 51 49 44 46 51 56 59 63 71 71 75 75 80 87 88 90 96 97 108 110 108 113
37 34 37 37 33 34 42 47 44 45 47 42 55 56 58 59 64 68 70 76 75 80 84 87 92 93 102 101 107 112 116 120
Wind_Direction
261 312 291 306 320 318 320 296 289 284 294 294 295 294 304 306 317 308 306 313 318 318 322 323 322 324 328 329 332 332 337 334
326 324 313 325 320 326 319 303 286 290 290 295 300 302 311 312 320 309 316 319 326 328 330 329 332 335 342 341 336 332 338 344
336 325 319 326 314 318 319 320 311 303 296 292 296 305 311 312 308 309 324 327 337 333 332 339 345 345 346 351 348 345 341 339
319 307 303 309 301 304 308 312 313 299 305 300 305 307 317 315 304 322 317 333 332 340 355 2 5 357 355 350 348 342 341 335
288 284 283 296 288 300 301 313 314 310 305 305 305 315 315 323 319 318 317 342 3 5 0 2 355 356 353 351 344 341 338 336
267 273 279 282 281 292 300 305 308 306 304 301 305 319 311 315 313 321 334 324 330 331 338 339 335 334 338 337 336 338 335 334
269 277 281 280 281 297 298 290 294 298 286 284 287 300 310 310 342 343 347 344 354 353 349 347 349 346 341 336 330 330 330 330
273 284 287 285 293 293 297 287 296 294 290 290 290 292 318 328 324 344 345 341 338 343 341 341 336 342 336 333 336 331 329 328
281 277 286 286 288 291 298 297 301 317 311 300 296 294 292 332 337 351 354 353 339 339 345 353 340 334 344 345 349 336 325 324
280 295 290 271 283 295 293 289 299 306 297 297 298 298 314 324 323 338 338 340 340 340 345 345 342 341 333 337 339 333 338 339
274 288 284 284 285 284 284 279 297 298 298 297 279 286 306 307 311 322 327 328 331 331 336 335 337 337 331 328 335 330 333 337
277 278 283 285 287 293 277 279 296 299 288 306 294 289 308 310 315 311 304 313 318 319 321 327 329 331 334 335 330 334 329 333
276 278 278 286 290 292 278 298 298 293 280 272 287 288 291 308 309 308 307 311 306 312 321 317 324 328 331 331 329 330 330 332
275 278 282 285 283 283 282 296 293 278 271 277 279 290 300 305 305 309 307 311 306 305 316 321 321 320 325 325 326 328 332 327
270 273 277 276 276 276 288 292 270 261 268 289 296 300 305 309 312 314 310 313 314 312 317 316 319 320 322 322 323 325 329 332
268 271 274 282 281 283 281 273 264 264 262 286 310 311 304 308 313 311 313 318 320 321 312 318 314 316 317 318 321 323 325 329
276 274 271 274 279 281 278 266 255 270 278 297 308 308 310 311 312 313 311 314 316 318 315 316 315 317 316 318 320 325 327 328
292 292 281 271 272 273 275 272 273 278 291 295 301 299 301 302 310 312 313 316 314 312 313 313 315 315 319 317 320 324 324 328
293 291 286 277 275 269 259 267 281 289 287 294 298 301 305 307 308 308 310 312 310 311 310 309 311 317 317 316 319 322 326 328
284 281 286 282 278 283 288 291 290 289 289 287 303 304 303 298 302 306 309 312 309 308 307 308 308 315 318 316 319 320 322 323